Time,TemperatureF,DewpointF,PressureIn,WindDirection,WindDirectionDegrees,WindSpeedMPH,WindSpeedGustMPH,Humidity,HourlyPrecipIn,Conditions,Clouds,dailyrainin,SolarRadiationWatts/m^2,SoftwareType,DateUTC
2013-03-15 00:14:00,32.9,30.0,30.14,SW,214,8.0,-999.0,90,-99.99,,,0.00,0,weatherlink.com 1.10,2013-03-15 04:14:00,
2013-03-15 00:29:00,32.8,30.0,30.14,SSW,209,4.0,-999.0,90,-99.99,,,0.00,0,weatherlink.com 1.10,2013-03-15 04:29:00,
2013-03-15 00:44:00,32.7,30.0,30.14,SSW,208,6.0,-999.0,91,-99.99,,,0.00,0,weatherlink.com 1.10,2013-03-15 04:44:00,
2013-03-15 00:59:00,32.6,30.0,30.14,SW,230,7.0,-999.0,91,-99.99,,,0.00,0,weatherlink.com 1.10,2013-03-15 04:59:00,
2013-03-15 01:14:00,32.8,31.0,30.13,SSW,195,10.0,-999.0,92,-99.99,,,0.00,0,weatherlink.com 1.10,2013-03-15 05:14:00,
2013-03-15 01:29:00,32.8,31.0,30.13,SW,215,8.0,-999.0,92,-99.99,,,0.00,0,weatherlink.com 1.10,2013-03-15 05:29:00,
2013-03-15 01:44:00,32.9,31.0,30.12,South,188,10.0,-999.0,92,-99.99,,,0.00,0,weatherlink.com 1.10,2013-03-15 05:44:00,
2013-03-15 01:59:00,32.7,31.0,30.11,SSW,198,7.0,-999.0,92,-99.99,,,0.00,0,weatherlink.com 1.10,2013-03-15 05:59:00,
2013-03-15 02:14:00,32.3,31.0,30.10,SSW,194,6.0,-999.0,93,-99.99,,,0.00,0,weatherlink.com 1.10,2013-03-15 06:14:00,
2013-03-15 02:29:00,32.0,30.0,30.11,SW,215,4.0,-999.0,93,-99.99,,,0.00,0,weatherlink.com 1.10,2013-03-15 06:29:00,
2013-03-15 02:44:00,31.9,30.0,30.10,SSW,199,3.0,-999.0,93,-99.99,,,0.00,0,weatherlink.com 1.10,2013-03-15 06:44:00,
2013-03-15 02:59:00,31.5,30.0,30.10,SSW,201,3.0,-999.0,93,-99.99,,,0.00,0,weatherlink.com 1.10,2013-03-15 06:59:00,
2013-03-15 03:14:00,31.1,29.0,30.09,SSW,195,3.0,-999.0,93,-99.99,,,0.00,0,weatherlink.com 1.10,2013-03-15 07:14:00,
2013-03-15 03:29:00,30.6,29.0,30.08,SSW,195,3.0,-999.0,94,-99.99,,,0.00,0,weatherlink.com 1.10,2013-03-15 07:29:00,
2013-03-15 03:44:00,30.7,29.0,30.08,SSW,195,4.0,-999.0,94,-99.99,,,0.00,0,weatherlink.com 1.10,2013-03-15 07:44:00,
2013-03-15 03:59:00,30.7,29.0,30.07,South,181,4.0,-999.0,94,-99.99,,,0.00,0,weatherlink.com 1.10,2013-03-15 07:59:00,
2013-03-15 04:14:00,30.5,29.0,30.06,South,189,5.0,-999.0,94,-99.99,,,0.00,0,weatherlink.com 1.10,2013-03-15 08:14:00,
2013-03-15 04:29:00,30.8,30.0,30.05,SSW,195,5.0,-999.0,95,-99.99,,,0.00,0,weatherlink.com 1.10,2013-03-15 08:29:00,
2013-03-15 04:44:00,30.8,30.0,30.05,SSW,197,5.0,-999.0,95,-99.99,,,0.00,0,weatherlink.com 1.10,2013-03-15 08:44:00,
2013-03-15 04:59:00,30.9,30.0,30.05,SSW,199,5.0,-999.0,95,-99.99,,,0.00,0,weatherlink.com 1.10,2013-03-15 08:59:00,
2013-03-15 05:14:00,30.8,29.0,30.04,SSW,195,6.0,-999.0,94,-99.99,,,0.00,0,weatherlink.com 1.10,2013-03-15 09:14:00,
2013-03-15 05:29:00,30.5,29.0,30.03,SSW,195,5.0,-999.0,94,-99.99,,,0.00,0,weatherlink.com 1.10,2013-03-15 09:29:00,
2013-03-15 05:44:00,30.4,29.0,30.02,SSW,193,4.0,-999.0,94,-99.99,,,0.00,0,weatherlink.com 1.10,2013-03-15 09:44:00,
2013-03-15 05:59:00,30.5,29.0,30.02,SSW,193,4.0,-999.0,94,-99.99,,,0.00,0,weatherlink.com 1.10,2013-03-15 09:59:00,
2013-03-15 06:14:00,30.3,29.0,30.01,SSW,193,4.0,-999.0,94,-99.99,,,0.00,0,weatherlink.com 1.10,2013-03-15 10:14:00,
2013-03-15 06:29:00,30.0,29.0,30.01,SSW,193,3.0,-999.0,94,-99.99,,,0.00,0,weatherlink.com 1.10,2013-03-15 10:29:00,
2013-03-15 06:44:00,30.0,29.0,30.00,SSW,193,4.0,-999.0,94,-99.99,,,0.00,0,weatherlink.com 1.10,2013-03-15 10:44:00,
2013-03-15 06:59:00,29.7,28.0,30.00,South,191,3.0,-999.0,94,-99.99,,,0.00,0,weatherlink.com 1.10,2013-03-15 10:59:00,
2013-03-15 07:14:00,29.6,28.0,30.00,South,180,3.0,-999.0,94,-99.99,,,0.00,0,weatherlink.com 1.10,2013-03-15 11:14:00,
2013-03-15 07:29:00,29.7,28.0,29.99,South,185,4.0,-999.0,94,-99.99,,,0.00,0,weatherlink.com 1.10,2013-03-15 11:29:00,
2013-03-15 07:44:00,29.8,28.0,29.99,SSW,197,5.0,-999.0,94,-99.99,,,0.00,0,weatherlink.com 1.10,2013-03-15 11:44:00,
2013-03-15 07:59:00,29.9,28.0,29.99,SSW,193,3.0,-999.0,94,-99.99,,,0.00,0,weatherlink.com 1.10,2013-03-15 11:59:00,
2013-03-15 08:14:00,30.5,29.0,29.99,SSW,209,5.0,-999.0,94,-99.99,,,0.00,16,weatherlink.com 1.10,2013-03-15 12:14:00,
2013-03-15 08:29:00,30.5,29.0,30.00,SSW,213,2.0,-999.0,93,-99.99,,,0.00,37,weatherlink.com 1.10,2013-03-15 12:29:00,
2013-03-15 08:44:00,30.8,29.0,29.99,SSW,203,4.0,-999.0,93,-99.99,,,0.00,58,weatherlink.com 1.10,2013-03-15 12:44:00,
2013-03-15 08:59:00,31.3,30.0,29.99,SSW,202,5.0,-999.0,93,-99.99,,,0.00,90,weatherlink.com 1.10,2013-03-15 12:59:00,
2013-03-15 09:14:00,31.7,30.0,29.98,SSW,201,7.0,-999.0,92,-99.99,,,0.00,97,weatherlink.com 1.10,2013-03-15 13:14:00,
2013-03-15 09:29:00,32.1,30.0,29.98,SSW,204,7.0,-999.0,92,-99.99,,,0.00,132,weatherlink.com 1.10,2013-03-15 13:29:00,
2013-03-15 09:44:00,32.7,31.0,29.98,SSW,210,9.0,-999.0,92,-99.99,,,0.00,174,weatherlink.com 1.10,2013-03-15 13:44:00,
2013-03-15 10:14:00,33.7,31.0,29.97,SSW,199,7.0,-999.0,90,-99.99,,,0.00,220,weatherlink.com 1.10,2013-03-15 14:14:00,
2013-03-15 10:29:00,34.3,31.0,29.96,SSW,208,11.0,-999.0,89,-99.99,,,0.00,274,weatherlink.com 1.10,2013-03-15 14:29:00,
2013-03-15 10:59:00,35.9,32.0,29.97,SW,231,6.0,-999.0,86,-99.99,,,0.00,269,weatherlink.com 1.10,2013-03-15 14:59:00,
2013-03-15 11:14:00,36.8,32.0,29.96,West,268,5.0,-999.0,84,-99.99,,,0.00,315,weatherlink.com 1.10,2013-03-15 15:14:00,
2013-03-15 11:29:00,37.4,33.0,29.96,WSW,256,6.0,-999.0,84,-99.99,,,0.00,269,weatherlink.com 1.10,2013-03-15 15:29:00,
2013-03-15 11:44:00,37.6,33.0,29.95,SW,225,9.0,-999.0,83,-99.99,,,0.00,287,weatherlink.com 1.10,2013-03-15 15:44:00,
2013-03-15 11:59:00,38.0,33.0,29.95,SW,222,4.0,-999.0,82,-99.99,,,0.00,318,weatherlink.com 1.10,2013-03-15 15:59:00,
2013-03-15 12:14:00,38.4,33.0,29.95,SW,221,7.0,-999.0,82,-99.99,,,0.00,364,weatherlink.com 1.10,2013-03-15 16:14:00,
2013-03-15 12:29:00,39.4,34.0,29.94,West,274,7.0,-999.0,80,-99.99,,,0.00,554,weatherlink.com 1.10,2013-03-15 16:29:00,
2013-03-15 12:44:00,40.7,35.0,29.95,WNW,282,6.0,-999.0,80,-99.99,,,0.00,441,weatherlink.com 1.10,2013-03-15 16:44:00,
2013-03-15 12:59:00,41.3,35.0,29.94,SW,223,7.0,-999.0,78,-99.99,,,0.00,508,weatherlink.com 1.10,2013-03-15 16:59:00,
2013-03-15 13:14:00,42.2,36.0,29.93,SSW,193,6.0,-999.0,78,-99.99,,,0.00,531,weatherlink.com 1.10,2013-03-15 17:14:00,
2013-03-15 13:29:00,42.3,36.0,29.92,South,187,4.0,-999.0,79,-99.99,,,0.00,448,weatherlink.com 1.10,2013-03-15 17:29:00,
2013-03-15 13:44:00,42.5,36.0,29.92,SSW,205,2.0,-999.0,79,-99.99,,,0.00,584,weatherlink.com 1.10,2013-03-15 17:44:00,
2013-03-15 13:59:00,43.6,38.0,29.92,South,184,4.0,-999.0,79,-99.99,,,0.00,613,weatherlink.com 1.10,2013-03-15 17:59:00,
2013-03-15 14:14:00,44.3,38.0,29.91,South,186,7.0,-999.0,78,-99.99,,,0.00,659,weatherlink.com 1.10,2013-03-15 18:14:00,
2013-03-15 14:29:00,44.9,37.0,29.90,South,187,5.0,-999.0,75,-99.99,,,0.00,557,weatherlink.com 1.10,2013-03-15 18:29:00,
2013-03-15 14:44:00,46.1,37.0,29.90,SW,235,3.0,-999.0,71,-99.99,,,0.00,461,weatherlink.com 1.10,2013-03-15 18:44:00,
2013-03-15 14:59:00,47.0,38.0,29.90,WSW,258,6.0,-999.0,70,-99.99,,,0.00,461,weatherlink.com 1.10,2013-03-15 18:59:00,
2013-03-15 15:14:00,47.2,37.0,29.89,SW,235,5.0,-999.0,69,-99.99,,,0.00,388,weatherlink.com 1.10,2013-03-15 19:14:00,
2013-03-15 15:43:00,47.4,37.0,29.88,SW,235,5.0,-999.0,68,-99.99,,,0.00,237,weatherlink.com 1.10,2013-03-15 19:43:00,
2013-03-15 15:59:00,47.5,37.0,29.87,NW,312,6.0,-999.0,68,-99.99,,,0.00,213,weatherlink.com 1.10,2013-03-15 19:59:00,
2013-03-15 16:13:00,47.5,38.0,29.87,WSW,254,4.0,-999.0,69,-99.99,,,0.00,148,weatherlink.com 1.10,2013-03-15 20:13:00,
2013-03-15 16:29:00,47.7,38.0,29.86,SW,224,2.0,-999.0,69,-99.99,,,0.00,109,weatherlink.com 1.10,2013-03-15 20:29:00,
2013-03-15 16:44:00,47.9,39.0,29.86,WSW,249,5.0,-999.0,70,-99.99,,,0.00,97,weatherlink.com 1.10,2013-03-15 20:44:00,
2013-03-15 16:59:00,47.8,39.0,29.86,SW,230,1.0,-999.0,72,-99.99,,,0.00,113,weatherlink.com 1.10,2013-03-15 20:59:00,
2013-03-15 17:14:00,47.3,39.0,29.87,SW,226,2.0,-999.0,73,-99.99,,,0.00,72,weatherlink.com 1.10,2013-03-15 21:14:00,
2013-03-15 17:29:00,46.5,40.0,29.87,SW,216,4.0,-999.0,79,-99.99,,,0.01,54,weatherlink.com 1.10,2013-03-15 21:29:00,
2013-03-15 17:44:00,45.5,41.0,29.86,SSW,206,5.0,-999.0,83,-99.99,,,0.02,65,weatherlink.com 1.10,2013-03-15 21:44:00,
2013-03-15 17:59:00,44.9,41.0,29.87,SW,214,7.0,-999.0,87,-99.99,,,0.03,54,weatherlink.com 1.10,2013-03-15 21:59:00,
2013-03-15 18:14:00,44.2,41.0,29.86,SSW,199,7.0,-999.0,89,-99.99,,,0.04,47,weatherlink.com 1.10,2013-03-15 22:14:00,
2013-03-15 18:29:00,43.8,41.0,29.86,SSW,204,5.0,-999.0,89,-99.99,,,0.05,23,weatherlink.com 1.10,2013-03-15 22:29:00,
2013-03-15 18:44:00,43.7,41.0,29.86,SSW,196,3.0,-999.0,90,-99.99,,,0.05,19,weatherlink.com 1.10,2013-03-15 22:44:00,
2013-03-15 18:59:00,43.6,41.0,29.86,SSW,199,1.0,-999.0,90,-99.99,,,0.05,14,weatherlink.com 1.10,2013-03-15 22:59:00,
2013-03-15 19:14:00,43.6,42.0,29.85,SSW,199,0.0,-999.0,92,-99.99,,,0.05,18,weatherlink.com 1.10,2013-03-15 23:14:00,
2013-03-15 19:29:00,43.4,41.0,29.84,SSW,199,0.0,-999.0,92,-99.99,,,0.05,7,weatherlink.com 1.10,2013-03-15 23:29:00,
2013-03-15 19:44:00,43.1,41.0,29.84,SE,136,0.0,-999.0,92,-99.99,,,0.05,0,weatherlink.com 1.10,2013-03-15 23:44:00,
2013-03-15 19:59:00,43.1,41.0,29.83,SE,136,0.0,-999.0,92,-99.99,,,0.05,0,weatherlink.com 1.10,2013-03-15 23:59:00,
2013-03-15 20:14:00,42.9,41.0,29.83,ENE,73,3.0,-999.0,93,-99.99,,,0.05,0,weatherlink.com 1.10,2013-03-16 00:14:00,
2013-03-15 20:29:00,42.8,41.0,29.83,East,79,0.0,-999.0,93,-99.99,,,0.05,0,weatherlink.com 1.10,2013-03-16 00:29:00,
2013-03-15 20:44:00,42.7,41.0,29.84,East,79,0.0,-999.0,93,-99.99,,,0.05,0,weatherlink.com 1.10,2013-03-16 00:44:00,
2013-03-15 20:59:00,42.5,41.0,29.84,East,79,0.0,-999.0,93,-99.99,,,0.05,0,weatherlink.com 1.10,2013-03-16 00:59:00,
2013-03-15 21:14:00,42.4,41.0,29.83,East,79,1.0,-999.0,94,-99.99,,,0.05,0,weatherlink.com 1.10,2013-03-16 01:14:00,
2013-03-15 21:29:00,42.3,41.0,29.82,NE,56,1.0,-999.0,94,-99.99,,,0.05,0,weatherlink.com 1.10,2013-03-16 01:29:00,
2013-03-15 21:59:00,41.9,41.0,29.82,NNE,19,1.0,-999.0,95,-99.99,,,0.07,0,weatherlink.com 1.10,2013-03-16 01:59:00,
2013-03-15 22:14:00,41.9,41.0,29.80,ESE,123,2.0,-999.0,95,-99.99,,,0.07,0,weatherlink.com 1.10,2013-03-16 02:14:00,
2013-03-15 22:29:00,42.0,41.0,29.78,SE,138,10.0,-999.0,95,-99.99,,,0.07,0,weatherlink.com 1.10,2013-03-16 02:29:00,
2013-03-15 22:44:00,42.2,41.0,29.77,SSE,164,8.0,-999.0,95,-99.99,,,0.07,0,weatherlink.com 1.10,2013-03-16 02:44:00,
2013-03-15 22:59:00,42.5,41.0,29.77,SSE,168,7.0,-999.0,94,-99.99,,,0.07,0,weatherlink.com 1.10,2013-03-16 02:59:00,
2013-03-15 23:14:00,42.8,41.0,29.79,SW,236,3.0,-999.0,93,-99.99,,,0.07,0,weatherlink.com 1.10,2013-03-16 03:14:00,
2013-03-15 23:29:00,42.8,41.0,29.79,South,189,5.0,-999.0,93,-99.99,,,0.07,0,weatherlink.com 1.10,2013-03-16 03:29:00,
2013-03-15 23:44:00,42.7,41.0,29.79,NNE,14,3.0,-999.0,92,-99.99,,,0.07,0,weatherlink.com 1.10,2013-03-16 03:44:00,
2013-03-15 23:59:00,42.2,40.0,29.78,NNE,21,0.0,-999.0,93,-99.99,,,0.07,0,weatherlink.com 1.10,2013-03-16 03:59:00,